sat.trackr.live / text

‹ back to catalog

STARLINK-32622

NORAD 61927 · 2024-207R

PAYLOAD ACTIVE UNKNOWN

§ Identity

Operator
Country
US
Launch date
2024-11-11
Launch site
AFETR
Launch vehicle
Mass (kg)
RCS (m²)

Purposes: comms

External: N2YO · Heavens-Above · Gunter

§ Orbital elements

Epoch: 2026-05-24T21:52:06.382272Z

Period
94.27 min
Inclination
43.0017°
Eccentricity
0.0002831
Mean motion
15.27587048 rev/d
Perigee alt
481.1 km
Apogee alt
485.0 km
Semi-major
6,861.2 km
B*
5.2030e-4
RAAN
210.8984°
Arg perigee
265.1153°
Mean anomaly
94.9376°
Rev number
8,638

§ Raw data

STARLINK-326221 61927U 24207R   26144.91118498  .00014086  00000+0  52030-3 0  99992 61927  43.0017 210.8984 0002831 265.1153  94.9376 15.27587048 86381

JSON: /api/v1/satellites/61927 · /tle

For live sub-satellite position, see the globe view (requires WebGL).

§ Visibility from observer

Set your observer location to see the next 7 days of passes ≥ 10°. The values pass through the URL so the page stays shareable.

No JS? Fill the form by hand. The geolocation button needs JavaScript.